Location: San Vito
(41.8833°N, 12.9833°E)
Time: 23:48:44
(UTC+00:00)

CZ-4C R/B - Pass Details

Date: 17 November 2019
Orbit: 650 x 1352 km, 63.4° (Epoch: 12 December)

Event Time Altitude Azimuth Distance (km) Brightness Sun altitude
Exits shadow 03:32:39 13° 351° (N) 2,447 4.5 -27.3°
Drops below altitude 10° 03:34:40 10° 9° (N) 2,727 4.9 -26.9°
Sets 03:39:16 0° 36° (NE) 3,864 6.1 -26.0°
